Regional Weather Roundup
Issued by NWS

Home | Current Version | Previous Version | Text Only | Print | Product List | Glossary Off
Versions: 1 2 3 4 5 6 7 8 9 10 11 12 13 14 15 16 17 18 19 20 21 22 23 24 25 26 27 28 29 30 31 32 33 34 35 36 37 38 39 40 41 42 43 44 45 46 47 48 49 50

000
ASUS43 KIND 201509
RWRIN

WEATHER ROUNDUP FOR INDIANA
NATIONAL WEATHER SERVICE INDIANAPOLIS IN
1000 AM EST THU NOV 20 2014

NOTE: "FAIR" INDICATES FEW OR NO CLOUDS BELOW 12,000 FEET WITH NO
SIGNIFICANT WEATHER AND/OR OBSTRUCTIONS TO VISIBILITY.

* - STATION DOES NOT REPORT WEATHER SUCH AS PRECIPITATION OR FOG.

+ - STATION NOT QUALITY CONTROLLED BY THE NATIONAL WEATHER SERVICE.
    USE DATA WITH CAUTION...ESPECIALLY DEWPOINT AND RELATIVE
    HUMIDITY OBSERVATIONS.

INZ001>003-010>013-019-020-201600-
NORTHWEST INDIANA

CITY           SKY/WX    TMP DP  RH WIND       PRES   REMARKS
GARY /AIRPORT/ MOSUNNY   23  12  63 W12       30.08R WCI  12
KNOX *+        SUNNY     22  13  69 W18G26    30.07R WCI   7
LA PORTE +     SUNNY     24  15  69 W14G23    30.05R WCI  11
MICHIGAN CITY+ CLOUDY    25  12  58 W15G24    30.05R WCI  12
MONTICELLO +   SUNNY     22  14  71 W14G21    30.12R WCI   9
RENSSELAER +   SUNNY     23  18  80 W15G22    30.11R WCI  10
VALPARAISO     SUNNY     21  11  65 W16       30.07R WCI   7

$$

LMZ046-743>745-201600-
SOUTHERN LAKE MICHIGAN

STATION/POSITION TIME  TEMP WIND        PRES
                       AIR  DIR/SP/G
                 (UTC) (F)  (DEG/KT/KT) (MB)
MICHIGAN CITY    1500   23  230/ 26/ 31   N/A

$$

INZ004-005-014>016-021>024-201600-
NORTH CENTRAL INDIANA

CITY           SKY/WX    TMP DP  RH WIND       PRES   REMARKS
ELKHART        FLURRIES  21  12  68 SW14G21   30.02R WCI   8
GOSHEN         PTSUNNY   22  14  71 W20       30.02R WCI   7
LOGANSPORT +   SUNNY     23  14  68 W15G23    30.11R WCI  10
PERU/GRISSOM   SUNNY     22  17  83 W20       30.09R WCI   6
ROCHESTER +    SUNNY     27  16  63 W14G22    30.07S WCI  15
SOUTH BEND     CLOUDY    21  13  71 SW21      30.02R WCI   5
WARSAW +       SUNNY     23  14  68 W15G22    30.04S WCI  10

$$

INZ006>009-017-018-025>027-201600-
NORTHEAST INDIANA

CITY           SKY/WX    TMP DP  RH WIND       PRES   REMARKS
ANGOLA *+      SUNNY     21  12  68 SW17G26   29.97S WCI   7
AUBURN +       SUNNY     23  14  68 SW14G20   30.03S WCI  11
FORT WAYNE     MOSUNNY   22  13  68 W20       30.06R WCI   7
HUNTINGTON +   SUNNY     22  14  71 W14       30.07R WCI   9

$$

INZ028-029-035-036-043>045-051>053-201600-
WEST CENTRAL INDIANA

CITY           SKY/WX    TMP DP  RH WIND       PRES   REMARKS
GREENCASTLE +  SUNNY     25  14  63 W10G18    30.18R WCI  15
LAFAYETTE      SUNNY     23  13  65 W14       30.14R WCI  11
TERRE HAUTE    SUNNY     26  14  60 W13       30.21R WCI  15

$$

INZ030>032-037>040-046>048-054>057-064-065-201600-
CENTRAL INDIANA

CITY           SKY/WX    TMP DP  RH WIND       PRES   REMARKS
CP ATTERBURY + SUNNY     28  14  54 W12G21    30.18S WCI  18
COLUMBUS       SUNNY     25  16  68 W12       30.20R WCI  14
FRANKFORT +    SUNNY     23  16  73 SW15G22   30.14R WCI  10
INDIANAPOLIS   MOSUNNY   24  14  65 W18       30.16R WCI  10
-EAGLE CREEK   SUNNY     24  13  62 W10G20    30.15R WCI  14
KOKOMO *+      SUNNY     21  14  73 W18       30.11R WCI   6
MARION +       SUNNY     22  14  72 W18       30.11R WCI   7
MT COMFORT *+  SUNNY     25   7  46 W18       30.14S WCI  11
SHELBYVILLE    SUNNY     26  15  63 W15       30.16R WCI  14
ZIONSVILLE +   SUNNY     24  13  63 W21G28    30.14R WCI   9

$$

INZ033-034-041-042-049-050-058-059-201600-
EAST CENTRAL INDIANA

CITY           SKY/WX    TMP DP  RH WIND       PRES   REMARKS
MUNCIE         SUNNY     23  13  65 W20       30.10R WCI   8

$$

INZ060-061-067>069-081>083-085>088-201600-
SOUTHWEST INDIANA

CITY           SKY/WX    TMP DP  RH WIND       PRES   REMARKS
EVANSVILLE     SUNNY     28  15  58 W7        30.28R WCI  21
HUNTINGBURG *+ CLOUDY    27  16  63 W10       30.27R WCI  17
WASHINGTON +   SUNNY     27  18  70 W8        30.24S WCI  18

$$

INZ062-063-066-070>080-084-089>092-201600-
SOUTH CENTRAL AND SOUTHEAST INDIANA

CITY           SKY/WX    TMP DP  RH WIND       PRES   REMARKS
BLOOMINGTON    SUNNY     24  15  68 W10       30.19R WCI  14
SEYMOUR +      SUNNY     30  16  55 W12G18    30.22  WCI  21

$$




USA.gov is the U.S. government's official web portal to all federal, state and local government web resources and services.